Greenville, AL

7:55 AM CDT on May 23, 2017 (GMT -0500)
Greenville Municipal

Weather History for KPRN - November, 2011

Change the Weather History Date:

Saturday, November 19, 2011

  Actual Average Record
Temperature  
Mean Temperature 57 °F -  
Max Temperature 66 °F 69 °F 81 °F (1985)
Min Temperature 48 °F 44 °F 19 °F (2014)
Degree Days  
Heating Degree Days 8    
Growing Degree Days 7 (Base 50)    
Moisture  
Dew Point 51 °F    
Average Humidity 74    
Maximum Humidity 93    
Minimum Humidity 63    
Precipitation  
Precipitation 0.00 in - - ()
Sea Level Pressure  
Sea Level Pressure 30.22 in    
Wind  
Wind Speed 6 mph (ESE)    
Max Wind Speed 10 mph    
Max Gust Speed -    
Visibility 10 miles    
Events Rain    
Averages and records for this station are not official NWS values.
T = Trace of Precipitation, MM = Missing Value Source: NWS Daily Summary

Daily Weather History Graph

Daily Weather History Graph

Search for Another Location

Airport or City:

Trip Planner

Search our weather history database for the weather conditions in past years. The results will help you decide how hot, cold, wet, or windy it might be!

Date:

Astronomy

Nov. 19, 2011 Rise Set
Actual Time 6:18 AM CST 4:45 PM CST
Civil Twilight 5:52 AM CST 5:11 PM CST
Nautical Twilight 5:22 AM CST 5:40 PM CST
Astronomical Twilight 4:53 AM CST 6:09 PM CST
Moon 12:00 AM CST (11/19) 12:42 PM CST (11/19)
Length of Visible Light 11h 19m
Length of Day
10h 26m
Last Quarter, 38% of the Moon is Illuminated
Nov 19
Last Quarter
Nov 25
New
Dec 2
First Quarter
Dec 10
Full
Dec 17
Last Quarter

Hourly Weather History & Observations

Time (CST) Temp. Dew Point Humidity Pressure Visibility Wind Dir Wind Speed Gust Speed Precip Events Conditions
12:56 AM 48.9 °F 39.0 °F 69% 30.23 in 10.0 mi ESE 5.8 mph - N/A   Clear
1:56 AM 50.0 °F 39.9 °F 68% 30.23 in 10.0 mi East 5.8 mph - N/A   Scattered Clouds
2:56 AM 50.0 °F 41.0 °F 71% 30.23 in 10.0 mi East 8.1 mph - N/A   Partly Cloudy
3:56 AM 50.0 °F 42.1 °F 74% 30.24 in 10.0 mi Variable 6.9 mph - N/A   Overcast
4:56 AM 48.9 °F 42.1 °F 77% 30.25 in 10.0 mi East 6.9 mph - N/A   Scattered Clouds
5:56 AM 48.9 °F 42.1 °F 77% 30.26 in 10.0 mi East 8.1 mph - N/A   Partly Cloudy
6:56 AM 48.9 °F 43.0 °F 80% 30.26 in 10.0 mi East 9.2 mph - N/A   Clear
7:56 AM 52.0 °F 46.0 °F 80% 30.27 in 10.0 mi ESE 9.2 mph - N/A   Scattered Clouds
8:56 AM 57.9 °F 48.0 °F 70% 30.28 in 10.0 mi East 10.4 mph - 0.00 in   Scattered Clouds
9:56 AM 61.0 °F 48.9 °F 64% 30.27 in 10.0 mi East 6.9 mph - N/A   Clear
10:56 AM 64.0 °F 51.1 °F 63% 30.25 in 10.0 mi East 6.9 mph - N/A   Scattered Clouds
11:56 AM 62.1 °F 51.1 °F 67% 30.23 in 10.0 mi ESE 4.6 mph - N/A   Mostly Cloudy
12:12 PM 63.0 °F 51.1 °F 65% 30.22 in 10.0 mi SE 6.9 mph - N/A   Overcast
12:56 PM 64.0 °F 52.0 °F 65% 30.20 in 10.0 mi East 3.5 mph - N/A   Overcast
1:56 PM 64.9 °F 54.0 °F 68% 30.18 in 10.0 mi ESE 5.8 mph - N/A   Mostly Cloudy
2:14 PM 64.9 °F 54.0 °F 68% 30.19 in 10.0 mi ESE 3.5 mph - N/A   Scattered Clouds
2:56 PM 66.0 °F 54.0 °F 65% 30.18 in 10.0 mi SE 8.1 mph - N/A   Mostly Cloudy
3:38 PM 64.0 °F 55.0 °F 73% 30.19 in 10.0 mi SE 3.5 mph - 0.00 in Rain Light Rain
3:56 PM 64.9 °F 55.0 °F 70% 30.19 in 10.0 mi East 3.5 mph - 0.00 in   Overcast
4:56 PM 64.0 °F 55.0 °F 73% 30.19 in 10.0 mi East 5.8 mph - N/A   Overcast
5:56 PM 64.0 °F 55.0 °F 73% 30.20 in 10.0 mi East 6.9 mph - N/A   Overcast
6:56 PM 64.0 °F 55.0 °F 73% 30.21 in 10.0 mi ESE 4.6 mph - N/A   Overcast
7:56 PM 63.0 °F 55.9 °F 78% 30.22 in 10.0 mi SE 3.5 mph - N/A   Overcast
8:56 PM 63.0 °F 55.9 °F 78% 30.22 in 10.0 mi ESE 5.8 mph - N/A   Overcast
9:21 PM 61.0 °F 55.9 °F 83% 30.23 in 10.0 mi ESE 4.6 mph - N/A   Scattered Clouds
9:56 PM 60.1 °F 55.9 °F 86% 30.21 in 10.0 mi ESE 4.6 mph - N/A   Clear
11:09 PM 60.1 °F 57.0 °F 90% 30.21 in 10.0 mi SSE 3.5 mph - N/A   Mostly Cloudy
11:43 PM 60.1 °F 57.9 °F 93% 30.21 in 10.0 mi Calm Calm - N/A   Overcast
11:56 PM 60.1 °F 57.9 °F 93% 30.21 in 10.0 mi South 3.5 mph - N/A   Overcast